YD2CLX-18 Weather Reports


Display with metric or nautical units.
time (UTC)temp
F
wind
direction
speed
MPH
gust
MPH
rain 1hr
in
rain 24hr
in
rain mn
in
humidity
%
barometer
mb
20260504194555 85 131 4.0 4.0 0.00 0.00 0.00 87 1009.0
20260504193055 85 131 4.0 4.0 0.00 0.00 0.00 86 1009.0
20260504191554 85 136 4.0 3.0 0.00 0.00 0.00 88 1009.0
20260504190056 85 136 4.0 3.0 0.00 0.00 0.00 87 1009.0
20260504184555 85 136 4.0 3.0 0.00 0.00 0.00 87 1009.0
20260504183055 85 136 4.0 3.0 0.00 0.00 0.00 87 1009.0
20260504181554 85 151 3.0 3.0 0.00 0.00 0.00 88 1010.0
20260504180059 85 151 3.0 3.0 0.00 0.00 0.00 88 1010.0
20260504174555 84 194 4.0 3.0 0.00 0.00 0.00 89 1010.0
20260504173055 85 194 4.0 3.0 0.01 0.00 0.00 89 1010.0
20260504171554 85 204 3.0 2.0 0.00 0.00 0.00 89 1011.0
20260504081512 86 46 2.0 2.0 0.00 0.00 0.00 76 1008.0
20260504050011 86 46 2.0 2.0 0.00 0.00 0.00 76 1010.0
20260504044511 86 46 2.0 2.0 0.00 0.00 0.00 76 1010.0
20260504043011 86 46 2.0 2.0 0.00 0.00 0.00 76 1010.0
20260504041512 86 46 2.0 2.0 0.00 0.00 0.00 76 1011.0
20260504040011 86 46 2.0 2.0 0.00 0.00 0.00 76 1011.0
20260504034511 86 46 2.0 2.0 0.00 0.00 0.00 76 1011.0
20260504033011 86 46 2.0 2.0 0.00 0.00 0.00 76 1011.0
20260504031511 86 46 2.0 2.0 0.00 0.00 0.00 76 1012.0
20260504030012 86 46 2.0 2.0 0.00 0.00 0.00 76 1012.0
20260504024511 86 46 2.0 2.0 0.00 0.00 0.00 76 1012.0
20260504023012 86 46 2.0 2.0 0.00 0.00 0.00 76 1012.0
20260504021511 86 46 2.0 2.0 0.00 0.00 0.00 76 1012.0
20260504020012 86 46 2.0 2.0 0.00 0.00 0.00 76 1012.0
20260504014512 86 46 2.0 2.0 0.00 0.00 0.00 76 1012.0
20260504013057 86 46 2.0 2.0 0.01 0.00 0.00 76 1012.0
20260504011557 87 65 1.0 2.0 0.00 0.00 0.00 81 1011.0
20260504010058 86 65 1.0 2.0 0.00 0.00 0.00 79 1011.0
20260504004556 85 65 1.0 2.0 0.00 0.00 0.00 79 1011.0
20260504003057 85 65 1.0 2.0 0.00 0.00 0.00 79 1011.0
20260504001556 85 156 2.0 2.0 0.00 0.00 0.00 83 1011.0
20260504000059 85 156 2.0 2.0 0.00 0.00 0.00 83 1011.0
20260503234556 85 107 3.0 3.0 0.00 0.00 0.00 85 1010.0
20260503233056 85 107 3.0 3.0 0.00 0.00 0.00 84 1010.0
20260503231556 85 125 2.0 3.0 0.00 0.00 0.00 88 1010.0
20260503230058 84 125 2.0 3.0 0.00 0.00 0.00 86 1010.0
20260503224556 84 125 2.0 3.0 0.00 0.00 0.00 87 1010.0
20260503223058 84 125 2.0 3.0 0.00 0.00 0.00 85 1010.0
20260503221556 84 154 2.0 3.0 0.00 0.00 0.00 88 1010.0
20260503220057 84 154 2.0 3.0 0.00 0.00 0.00 86 1010.0
20260503214556 84 154 2.0 3.0 0.00 0.00 0.00 86 1010.0
20260503213058 84 154 2.0 3.0 0.00 0.00 0.00 85 1010.0
20260503211556 85 164 3.0 3.0 0.00 0.00 0.00 88 1010.0
20260503210058 85 164 3.0 3.0 0.00 0.00 0.00 86 1010.0
20260503204556 85 164 3.0 3.0 0.00 0.00 0.00 86 1010.0
20260503203058 85 164 3.0 3.0 0.00 0.00 0.00 85 1010.0
20260503201556 85 161 3.0 3.0 0.00 0.00 0.00 88 1010.0
20260503200057 85 161 3.0 3.0 0.00 0.00 0.00 86 1010.0